Terminal Aerodrome Forecast
Issued by NWS

Home | Current Version | Previous Version | Text Only | Print | Product List | Glossary On
Versions: 1 2 3 4 5 6 7 8 9 10 11 12
000
FTUS45 KBOI 172331
TAFMYL
TAF
KMYL 172331Z 1800/1824 17009G16KT P6SM OVC060
     FM180300 33007KT P6SM -SHRA SCT025 OVC045
     FM180500 VRB04KT 5SM -SHRA SCT007 OVC015
     FM181400 33006KT P6SM BKN035
     FM181800 22008KT P6SM SCT150=

USA.gov is the U.S. government's official web portal to all federal, state and local government web resources and services.